Погода в Васильчуках

Россия / Алтайский край     52°16′24″N   78°57′04″E
темп.,
°C
ветер,
м/с
пор.,
м/с
влажн.,
%
обл.,
%
осадки,
мм/ч
давл.,
гПа
погр.,
м
26 января, вт
вт2601:00−20юв349899 0.6 1035117
04:00−19юв229884 0.1 103425
07:00−20вюв119991 0.1 103520
10:00−18юв0196100 0.0 103620
13:00−15ю1291100 0.0 1036206
16:00−13юз2492100 0.0 1037337
19:00−15ююз3695100 0.0 1036180
22:00−14ююз5995100 0.1 1036303
27 января, ср
ср2701:00−11ююз51094100 0.8 1034330
04:00−9ююз51094100 0.3 1032276
07:00−6юз5109599 0.6 1032324
10:00−6юз5119597 0.1 1032371
13:00−5юз6109298 0.3 1032570
16:00−5юз71191100 0.1 1031544
19:00−5юз51193100 0.1 1032460
22:00−4юз51094100 0.1 1033499
28 января, чт
чт2801:00−4зюз5995100 0.2 1033420
04:00−4юз5995100 0.1 1033374
07:00−4зюз5995100 0.3 1033378
10:00−7зюз5995100 0.1 1035288
13:00−7юз5895100 0.1 1034334
16:00−6юз61094100 0.0 1033395
19:00−8ююз6129399 0.1 1032315
22:00−7юз6129279 0.0 1031341
29 января, пт
пт2901:00−7юз7139188 0.0 1030349
04:00−6юз81588100 0.0 1028445
07:00−5зюз71387100 0.0 1028533
10:00−6зюз61189100 0.0 1029423
13:00−5зюз61089100 0.0 1030479
16:00−5зюз61089100 0.0 1030506
19:00−6зюз51091100 0.0 1031381
22:00−7зюз41091100 0.0 1032316
30 января, сб
сб3001:00−8зюз4892100 0.0 1032210
04:00−11зюз3694100 0.0 1033101
07:00−12юз3493100 0.0 103258
10:00−13юз339175 0.0 103327
13:00−8ююз358883 0.0 1032211
16:00−5ююз358991 0.0 1030217
19:00−8ююв339095 0.0 102947
22:00−9ююв358999 0.0 102798